• In Lithuania
  • List of Countries
  • For 7 days
  • Water Temperature
  • Satellite Maps
  • Weather Map
  • Weather Widgets
  • user-avatar
    Login

    Hourly Weather Peremyshlyany

    Today, 18 February, Sunday

    Time Temperature Precipitation Wind Pressure Humidity
    00:00 -2°C° 0 mm 1 mps 739 mmHg 87%
    01:00 -2°C° 0 mm 1 mps 739 mmHg 87%
    02:00 -2°C° 0 mm 1 mps 738 mmHg 87%
    03:00 -2°C° 0 mm 1 mps 738 mmHg 88%
    04:00 -2°C° 0 mm 1 mps 738 mmHg 88%
    05:00 -3°C° 0 mm 1 mps 738 mmHg 88%
    06:00 -3°C° 0 mm 1 mps 738 mmHg 89%
    07:00 -3°C° 0 mm 1 mps 738 mmHg 89%
    08:00 -3°C° 0 mm 1 mps 739 mmHg 90%
    09:00 -4°C° 0 mm 2 mps 739 mmHg 90%
    10:00 -3°C° 0 mm 2 mps 739 mmHg 91%
    11:00 -2°C° 0 mm 2 mps 739 mmHg 92%
    12:00 -2°C° 0.1 mm 3 mps 739 mmHg 92%
    13:00 -1°C° 0.1 mm 3 mps 739 mmHg 93%
    14:00 -1°C° 0 mm 3 mps 740 mmHg 92%
    15:00 -1°C° 0.1 mm 3 mps 740 mmHg 90%
    16:00 -2°C° 0.1 mm 3 mps 740 mmHg 89%
    17:00 -2°C° 0.1 mm 3 mps 740 mmHg 87%
    18:00 -4°C° 0 mm 3 mps 740 mmHg 88%
    19:00 -5°C° 0 mm 3 mps 741 mmHg 90%
    20:00 -5°C° 0 mm 2 mps 741 mmHg 91%
    21:00 -5°C° 0 mm 2 mps 741 mmHg 91%
    22:00 -6°C° 0 mm 2 mps 741 mmHg 91%
    23:00 -6°C° 0 mm 2 mps 742 mmHg 91%

    Tomorrow, 19 February, Monday

    Time Temperature Precipitation Wind Pressure Humidity
    00:00 -7°C° 0 mm 2 mps 742 mmHg 91%
    01:00 -6°C° 0 mm 1 mps 742 mmHg 91%
    02:00 -6°C° 0 mm 1 mps 742 mmHg 91%
    03:00 -7°C° 0 mm 1 mps 742 mmHg 91%
    04:00 -7°C° 0 mm 1 mps 742 mmHg 91%
    05:00 -7°C° 0 mm 1 mps 742 mmHg 91%
    06:00 -8°C° 0 mm 1 mps 742 mmHg 91%
    07:00 -8°C° 0 mm 1 mps 742 mmHg 91%
    08:00 -8°C° 0 mm 0 mps 742 mmHg 91%
    09:00 -6°C° 0 mm 1 mps 742 mmHg 88%
    10:00 -4°C° 0 mm 1 mps 742 mmHg 85%
    11:00 -3°C° 0 mm 1 mps 742 mmHg 82%
    12:00 -2°C° 0 mm 1 mps 742 mmHg 80%
    13:00 -2°C° 0 mm 1 mps 741 mmHg 79%
    14:00 -1°C° 0 mm 1 mps 741 mmHg 77%
    15:00 -2°C° 0 mm 1 mps 741 mmHg 79%
    16:00 -2°C° 0 mm 1 mps 741 mmHg 82%
    17:00 -2°C° 0 mm 1 mps 740 mmHg 85%
    18:00 -3°C° 0 mm 1 mps 740 mmHg 86%
    19:00 -6°C° 0 mm 2 mps 740 mmHg 88%
    20:00 -7°C° 0 mm 2 mps 740 mmHg 90%
    21:00 -7°C° 0 mm 2 mps 740 mmHg 90%
    22:00 -8°C° 0 mm 2 mps 740 mmHg 90%
    23:00 -8°C° 0 mm 2 mps 740 mmHg 91%

    Day after tomorrow, 20 February, Tuesday

    Time Temperature Precipitation Wind Pressure Humidity
    00:00 -8°C° 0 mm 2 mps 740 mmHg 91%
    01:00 -8°C° 0 mm 2 mps 740 mmHg 91%
    02:00 -9°C° 0 mm 2 mps 740 mmHg 91%
    03:00 -10°C° 0 mm 3 mps 739 mmHg 91%
    04:00 -10°C° 0 mm 3 mps 739 mmHg 92%
    05:00 -10°C° 0 mm 3 mps 739 mmHg 92%
    06:00 -10°C° 0 mm 3 mps 739 mmHg 92%
    07:00 -10°C° 0 mm 3 mps 739 mmHg 92%
    08:00 -10°C° 0 mm 3 mps 739 mmHg 93%
    09:00 -10°C° 0 mm 4 mps 739 mmHg 90%
    10:00 -8°C° 0 mm 4 mps 739 mmHg 88%
    11:00 -7°C° 0 mm 4 mps 739 mmHg 86%
    12:00 -6°C° 0 mm 5 mps 738 mmHg 85%
    13:00 -5°C° 0 mm 5 mps 738 mmHg 84%
    14:00 -5°C° 0 mm 5 mps 738 mmHg 84%
    15:00 -5°C° 0 mm 5 mps 738 mmHg 84%
    16:00 -5°C° 0 mm 4 mps 737 mmHg 85%
    17:00 -5°C° 0 mm 4 mps 737 mmHg 86%
    18:00 -7°C° 0 mm 4 mps 737 mmHg 87%
    19:00 -7°C° 0 mm 4 mps 737 mmHg 88%
    20:00 -8°C° 0 mm 4 mps 738 mmHg 89%
    21:00 -8°C° 0 mm 4 mps 738 mmHg 89%
    22:00 -8°C° 0 mm 4 mps 738 mmHg 89%
    23:00 -9°C° 0 mm 4 mps 738 mmHg 89%

    21 February, Wednesday

    Time Temperature Precipitation Wind Pressure Humidity
    00:00 -9°C° 0 mm 4 mps 738 mmHg 89%
    01:00 -9°C° 0 mm 4 mps 738 mmHg 89%
    02:00 -9°C° 0 mm 4 mps 738 mmHg 89%
    03:00 -9°C° 0 mm 4 mps 737 mmHg 89%
    04:00 -8°C° 0 mm 4 mps 737 mmHg 89%
    05:00 -8°C° 0 mm 4 mps 737 mmHg 90%
    06:00 -8°C° 0 mm 4 mps 737 mmHg 90%
    07:00 -8°C° 0 mm 4 mps 737 mmHg 89%
    08:00 -8°C° 0 mm 4 mps 737 mmHg 89%
    09:00 -7°C° 0 mm 4 mps 737 mmHg 88%
    10:00 -5°C° 0 mm 4 mps 737 mmHg 86%
    11:00 -5°C° 0 mm 5 mps 737 mmHg 85%
    12:00 -5°C° 0 mm 5 mps 737 mmHg 84%
    13:00 -4°C° 0 mm 5 mps 737 mmHg 84%
    14:00 -3°C° 0 mm 4 mps 737 mmHg 84%
    15:00 -3°C° 0 mm 4 mps 737 mmHg 85%
    16:00 -3°C° 0 mm 4 mps 736 mmHg 86%
    17:00 -2°C° 0 mm 3 mps 736 mmHg 87%
    18:00 -2°C° 0 mm 3 mps 736 mmHg 88%
    19:00 -4°C° 0 mm 4 mps 737 mmHg 89%
    20:00 -4°C° 0 mm 4 mps 737 mmHg 90%
    21:00 -4°C° 0 mm 4 mps 737 mmHg 90%
    22:00 -4°C° 0 mm 4 mps 737 mmHg 90%
    23:00 -5°C° 0 mm 3 mps 737 mmHg 90%

    22 February, Thursday

    Time Temperature Precipitation Wind Pressure Humidity
    00:00 -5°C° 0 mm 4 mps 737 mmHg 90%
    01:00 -5°C° 0 mm 4 mps 737 mmHg 91%
    02:00 -5°C° 0 mm 4 mps 737 mmHg 91%
    03:00 -5°C° 0 mm 4 mps 737 mmHg 91%
    04:00 -5°C° 0 mm 4 mps 737 mmHg 91%
    05:00 -5°C° 0 mm 4 mps 737 mmHg 91%
    06:00 -5°C° 0 mm 4 mps 737 mmHg 90%
    07:00 -5°C° 0 mm 4 mps 737 mmHg 90%
    08:00 -7°C° 0 mm 4 mps 737 mmHg 90%
    09:00 -6°C° 0 mm 5 mps 737 mmHg 88%
    10:00 -6°C° 0 mm 5 mps 737 mmHg 86%
    11:00 -5°C° 0 mm 5 mps 737 mmHg 84%
    12:00 -5°C° 0 mm 5 mps 736 mmHg 83%
    13:00 -4°C° 0 mm 5 mps 736 mmHg 83%
    14:00 -4°C° 0 mm 6 mps 736 mmHg 82%
    15:00 -4°C° 0.1 mm 5 mps 736 mmHg 83%
    16:00 -4°C° 0.1 mm 5 mps 735 mmHg 83%
    17:00 -5°C° 0.1 mm 5 mps 735 mmHg 84%
    18:00 -5°C° 0.2 mm 5 mps 735 mmHg 86%
    19:00 -5°C° 0.2 mm 5 mps 735 mmHg 88%
    20:00 -6°C° 0.2 mm 5 mps 735 mmHg 89%
    21:00 -5°C° 0.3 mm 4 mps 735 mmHg 90%
    22:00 -5°C° 0.3 mm 4 mps 735 mmHg 91%
    23:00 -5°C° 0.3 mm 4 mps 735 mmHg 92%

    23 February, Friday

    Time Temperature Precipitation Wind Pressure Humidity
    00:00 -5°C° 0.2 mm 4 mps 734 mmHg 92%
    01:00 -5°C° 0.2 mm 4 mps 734 mmHg 92%
    02:00 -5°C° 0.2 mm 3 mps 734 mmHg 92%
    03:00 -5°C° 0.1 mm 3 mps 734 mmHg 93%
    04:00 -5°C° 0.1 mm 3 mps 733 mmHg 93%
    05:00 -4°C° 0.1 mm 2 mps 733 mmHg 94%
    06:00 -4°C° 0.2 mm 2 mps 733 mmHg 94%
    07:00 -4°C° 0.2 mm 2 mps 732 mmHg 95%
    08:00 -4°C° 0.2 mm 2 mps 732 mmHg 95%
    09:00 -4°C° 0.4 mm 2 mps 732 mmHg 95%
    10:00 -3°C° 0.4 mm 2 mps 732 mmHg 94%
    11:00 -1°C° 0.4 mm 1 mps 732 mmHg 94%
    12:00 -3°C° 0.5 mm 2 mps 731 mmHg 94%
    13:00 -3°C° 0.5 mm 2 mps 731 mmHg 94%
    14:00 -2°C° 0.5 mm 2 mps 731 mmHg 94%
    15:00 -4°C° 0.6 mm 3 mps 731 mmHg 94%
    16:00 -4°C° 0.6 mm 3 mps 731 mmHg 94%
    17:00 -4°C° 0.6 mm 3 mps 730 mmHg 95%
    18:00 -4°C° 0.5 mm 4 mps 730 mmHg 95%
    19:00 -5°C° 0.5 mm 4 mps 730 mmHg 95%
    20:00 -5°C° 0.5 mm 4 mps 730 mmHg 95%
    21:00 -7°C° 0.5 mm 4 mps 730 mmHg 95%
    22:00 -7°C° 0.5 mm 5 mps 730 mmHg 95%
    23:00 -8°C° 0.5 mm 5 mps 729 mmHg 95%
    Show more